Lexington Weather

Lexington, Massachusetts, USA

32°F
12/8/2019 4:19pm 
  • Lexington Conditions: Mostly cloudy
  • Temperature: 32.4°F / 0.2°CColder 1.2°F than last hour.
  • Dew Point: 18.0°FIncreased 2.0°Fsince last hour.
  • Relative Humidity: 55%Increased 7.0% since last hour.
  • Wind: Wind from SW SW 3 mph, 10-min avg: 2 mph, gust: 8 mph
  • Barometer: 30.41 in Steady
  • Visibility: 10 miles
  • Snow Today: 0.0 in
  •   

Regional Weather Roundup
for Boston / Norton, MA

        
000
ASUS41 KBOX 052310
RWRBOX

REGIONAL WEATHER ROUNDUP
NATIONAL WEATHER SERVICE BOSTON/NORTON MA
600 PM EST THU DEC 05 2019

NOTE:  "FAIR" INDICATES FEW OR NO CLOUDS BELOW 12,000 FEET WITH NO 
SIGNIFICANT WEATHER AND/OR OBSTRUCTIONS TO VISIBILITY.

MAZALL-060000-
EASTERN MASSACHUSETTS
  
CITY           SKY/WX    TMP DP  RH WIND       PRES   REMARKS
BOSTON         FAIR      40  19  43 W14       29.78R                  
BEVERLY        CLOUDY    37  22  54 W8        29.75R WCI  31          
LAWRENCE       FAIR      35  22  58 W7        29.77R WCI  29          
BEDFORD        FAIR      37  15  40 W14G22    29.76R WCI  28          
BLUE HILL        N/A     33  20  58 W14       29.74R WCI  23          
NORWOOD        MOCLDY    39  20  46 W7        29.78R                  
MARSHFIELD     CLOUDY    39  21  48 VRB6G16   29.77R                  
PLYMOUTH       CLOUDY    37  23  56 W10       29.79R WCI  30          
TAUNTON        MOCLDY    39  20  46 W6        29.80R                  
NEW BEDFORD    MOCLDY    37  21  52 W10       29.81R WCI  30          
$$

MAZALL-060000-
CAPE COD AND THE ISLANDS
  
CITY           SKY/WX    TMP DP  RH WIND       PRES   REMARKS
FALMOUTH       CLOUDY    39  23  52 NW14      29.78R WCI  31          
HYANNIS        CLOUDY    41  22  46 W9G24     29.76R                  
CHATHAM        CLOUDY    40  26  57 W10G20    29.77R                  
PROVINCETOWN   CLOUDY    40  27  59 W24G31    29.76R WCI  29          
NANTUCKET      CLOUDY    41  24  51 W16       29.78R                  
MARTHAS VNYRD  CLOUDY    40  21  46 W16G25    29.80R WCI  31          
$$
 
MAZALL-060000-
CENTRAL AND WESTERN MASSACHUSETTS
  
CITY           SKY/WX    TMP DP  RH WIND       PRES   REMARKS
WORCESTER      FAIR      30  14  51 W17G36    29.75R WCI  18          
FITCHBURG      FAIR      34  15  46 W17G30    29.78R WCI  23          
ORANGE         CLOUDY    33  16  49 W13G20    29.80R WCI  24          
SPRINGFIELD    NOT AVBL                                               
WESTFIELD      CLOUDY    34  16  47 W9G17     29.85R WCI  27          
NORTH ADAMS    CLOUDY    30  16  56 W20G28    29.83R WCI  17          
PITTSFIELD     CLOUDY    29  18  63 W15G30    29.81R WCI  18          
$$
 
RIZALL-060000-
RHODE ISLAND
  
CITY           SKY/WX    TMP DP  RH WIND       PRES   REMARKS
PROVIDENCE     MOCLDY    37  19  48 NW14G33   29.83R WCI  28          
NEWPORT        MOCLDY    39  20  46 W10G22    29.82R                  
BLOCK ISLAND   CLOUDY    39  21  48 W16G29    29.85R WCI  30          
SMITHFIELD     FAIR      35  17  47 W17G30    29.81R WCI  25          
WESTERLY       CLOUDY    40  19  43 NW12G21   29.86R                  
$$
 
CTZALL-060000-
CONNECTICUT
  
CITY           SKY/WX    TMP DP  RH WIND       PRES   REMARKS
BRADLEY INTL   MOCLDY    37  18  46 NW14G22   29.86R WCI  28          
HARTFORD       CLOUDY    36  21  54 NW6       29.88R WCI  31          
BRIDGEPORT     CLOUDY    38  24  57 W9        29.91R WCI  31          
DANBURY        FAIR      35  20  54 VRB6      29.88R WCI  30          
GROTON         CLOUDY    35  23  61 NW15G31   29.87R WCI  25          
NEW HAVEN      LGT RAIN  40  26  57 NW14G21   29.90R FOG              
CHESTER        FLURRIES  34  27  75 VRB7G15   29.87R WCI  28          
MERIDEN        CLOUDY    34  27  75 CALM      29.88R                  
WILLIMANTIC    CLOUDY    35  18  49 NW15G22   29.87R WCI  25          
OXFORD         CLOUDY    33  24  69 NW6       29.86R WCI  28          
$$

MEZ002-015-021-024-NHZ003-005-008-011-012-014-VTZ005-008-060000-
NORTHERN NEW ENGLAND
  
CITY           SKY/WX    TMP DP  RH WIND       PRES   REMARKS
PORTLAND ME    FAIR      38  22  52 NW6       29.70R                  
BANGOR ME      CLOUDY    32  28  85 SW5       29.64R WCI  27          
CONCORD NH     CLOUDY    34  19  54 NW10      29.74R WCI  26          
MANCHESTER NH  FAIR      36  19  50 VRB3      29.74R                  
NASHUA NH      FAIR      33  20  58 W5        29.77R WCI  29          
PORTSMOUTH NH  NOT AVBL                                               
JAFFREY NH     CLOUDY    31  16  54 NW8       29.74R WCI  23          
KEENE NH       CLOUDY    33  15  47 W15       29.78R WCI  23          
BURLINGTON VT  CLOUDY    28  16  60 NW18G28   29.84R WCI  15          
MT. WASHINGTON SNOWSHWR   7   7 100 W61         N/A  VSB 0   WCI -23  
$$

NYZ052-076-060000-
EASTERN NEW YORK
  
CITY           SKY/WX    TMP DP  RH WIND       PRES   REMARKS
ALBANY         CLOUDY    33  20  58 NW13G22   29.90R WCI  24          
NEW YORK CITY  CLOUDY    40  23  50 W12G21    29.94R                  
$$
 
ANZALL-060000-
MARINE OBSERVATIONS
  
STATION/POSITION TIME  TEMP    WIND        PRES    VSBY  WAVE
                       AIR SEA DIR/SP/G                  HT/PER
                 (UTC) (F)     (DEG/KT/KT) (MB)    (MI)  (FT/S)
BOSTON BUOY      2250   41 48  290/ 19/ 25 1006.5R         4/ 4
BUZZARDS BAY     2200   40     300/ 27/ 30 1008.6R
NANTUCKET SOUND  2250   41 44                N/A           2/ 3
MASS BAY-STELLWA 2204   41 47  310/ 25/ 27 1003.9R  1 7/8  3/ 4
ISLE OF SHOALS   2200   39     270/ 24/ 28 1004.6R
S OF BLOCK IS    2300      51                N/A           7/ 6
$$

......................KEY.........................
  SKY/WX - SKY CONDITION/PRESENT WEATHER
  TMP    - TEMPERATURE IN FAHRENHEIT
  DWPT   - DEWPOINT IN FAHRENHEIT
  RH     - RELATIVE HUMIDITY IN PERCENT
  WIND   - DIRECTION AND SPEED IN MPH
  PRES   - MEAN SEA LEVEL PRESSURE IN INCHES OF HG
  WCI    - WIND CHILL INDEX
  VSB    - VISIBILITY IN MILES
  HX     - HEAT INDEX
  TC     - TEMPERATURE IN CELSIUS
  VRB    - VARIABLE WIND DIRECTION
  N/A    - NOT AVAILABLE
  
      

Other recent Regional Weather Roundups

Sun Dec 8, 4:10pm

Sun Dec 8, 4:01pm

Sun Dec 8, 3:10pm

Sun Dec 8, 3:01pm

Sun Dec 8, 2:10pm

Sun Dec 8, 2:01pm

Sun Dec 8, 1:10pm

Sun Dec 8, 1:00pm

Sun Dec 8, 12:10pm

Sun Dec 8, 12:01pm

Sun Dec 8, 11:10am

Sun Dec 8, 11:00am

Sun Dec 8, 10:10am

Sun Dec 8, 10:01am

Sun Dec 8, 9:10am

Sun Dec 8, 9:00am

Sun Dec 8, 8:10am

Sun Dec 8, 8:00am

Sun Dec 8, 7:10am

Sun Dec 8, 7:00am

Sun Dec 8, 6:10am

Sun Dec 8, 6:00am

Sun Dec 8, 5:10am

Sun Dec 8, 5:00am

Sun Dec 8, 4:10am

Sun Dec 8, 4:00am

Sun Dec 8, 3:10am

Sun Dec 8, 3:00am

Sun Dec 8, 2:10am

Sun Dec 8, 2:00am

Sun Dec 8, 1:10am

Sun Dec 8, 1:00am

Sun Dec 8, 12:10am

Sun Dec 8, 12:01am

Sat Dec 7, 11:10pm

Sat Dec 7, 11:00pm

Sat Dec 7, 10:10pm

Sat Dec 7, 10:00pm

Sat Dec 7, 9:10pm

Sat Dec 7, 9:00pm

Sat Dec 7, 8:10pm

Sat Dec 7, 8:00pm

Sat Dec 7, 7:10pm

Sat Dec 7, 7:00pm

Sat Dec 7, 6:10pm

Sat Dec 7, 6:00pm

Sat Dec 7, 5:10pm

Sat Dec 7, 5:00pm

Sat Dec 7, 4:10pm

Sat Dec 7, 4:00pm

Sat Dec 7, 3:10pm

Sat Dec 7, 3:00pm

Sat Dec 7, 2:10pm

Sat Dec 7, 2:01pm

Sat Dec 7, 1:10pm

Sat Dec 7, 1:00pm

Sat Dec 7, 12:10pm

Sat Dec 7, 12:01pm

Sat Dec 7, 11:10am

Sat Dec 7, 11:00am

Sat Dec 7, 10:10am

Sat Dec 7, 10:01am

Sat Dec 7, 9:10am

Sat Dec 7, 9:00am

Sat Dec 7, 8:10am

Sat Dec 7, 8:00am

Sat Dec 7, 7:10am

Sat Dec 7, 7:00am

Sat Dec 7, 6:10am

Sat Dec 7, 6:00am

Sat Dec 7, 5:10am

Sat Dec 7, 5:00am

Sat Dec 7, 4:10am

Sat Dec 7, 4:00am

Sat Dec 7, 3:10am

Sat Dec 7, 3:00am

Sat Dec 7, 2:10am

Sat Dec 7, 2:01am

Sat Dec 7, 1:10am

Sat Dec 7, 1:00am

Sat Dec 7, 12:10am

Sat Dec 7, 12:01am

Fri Dec 6, 11:10pm

Fri Dec 6, 11:00pm

Fri Dec 6, 10:10pm

Fri Dec 6, 10:00pm

Fri Dec 6, 9:10pm

Fri Dec 6, 9:00pm

Fri Dec 6, 8:10pm

Fri Dec 6, 8:00pm

Fri Dec 6, 7:10pm

Fri Dec 6, 7:01pm

Fri Dec 6, 6:10pm

Fri Dec 6, 6:00pm

Fri Dec 6, 5:10pm

Fri Dec 6, 5:00pm

Fri Dec 6, 4:10pm

Fri Dec 6, 4:00pm

Fri Dec 6, 3:10pm

Fri Dec 6, 3:00pm

Fri Dec 6, 2:10pm

Fri Dec 6, 2:00pm

Fri Dec 6, 1:10pm

Fri Dec 6, 1:00pm

Fri Dec 6, 12:10pm

Fri Dec 6, 12:00pm

Fri Dec 6, 11:10am

Fri Dec 6, 11:00am

Fri Dec 6, 10:10am

Fri Dec 6, 10:00am

Fri Dec 6, 9:10am

Fri Dec 6, 9:00am

Fri Dec 6, 8:10am

Fri Dec 6, 8:00am

Fri Dec 6, 7:10am

Fri Dec 6, 7:00am

Fri Dec 6, 6:10am

Fri Dec 6, 6:01am

Fri Dec 6, 5:10am

Fri Dec 6, 5:00am

Fri Dec 6, 4:10am

Fri Dec 6, 4:00am

Fri Dec 6, 3:10am

Fri Dec 6, 3:00am

Fri Dec 6, 2:10am

Fri Dec 6, 2:00am

Fri Dec 6, 1:10am

Fri Dec 6, 1:00am

Fri Dec 6, 12:10am

Fri Dec 6, 12:00am

Thu Dec 5, 11:10pm

Thu Dec 5, 11:00pm

Thu Dec 5, 10:10pm

Thu Dec 5, 10:01pm

Thu Dec 5, 9:10pm

Thu Dec 5, 9:01pm

Thu Dec 5, 8:10pm

Thu Dec 5, 8:00pm

Thu Dec 5, 7:10pm

Thu Dec 5, 7:00pm

Thu Dec 5, 6:00pm

Thu Dec 5, 5:10pm

Thu Dec 5, 5:00pm

Meta data:

ID: a8bcc2d5-d162-45e9-8f16-042c2e96a33b
Link: https://api.weather.gov/products/a8bcc2d5-d162-45e9-8f16-042c2e96a33b